EW8354 Weather Reports


time (UTC)temp
F
wind
direction
speed
knots
gust
knots
rain 1hr
in
rain 24hr
in
rain mn
in
humidity
%
barometer
mb
20260507061527 56 111 0.9 2.6 0.00 0.00 0.00 81 1008.7
20260507060026 56 145 0.0 1.7 0.00 0.00 0.00 81 1008.6
20260507054534 56 197 0.0 1.7 0.00 0.00 0.00 81 1008.4
20260507053023 56 201 0.0 0.0 0.00 0.00 0.00 80 1008.4
20260507051521 56 201 0.0 0.0 0.00 0.00 0.00 80 1008.5
20260507050025 56 201 0.0 0.0 0.00 0.00 0.00 80 1008.4
20260507044518 57 201 0.0 0.0 0.00 0.00 0.00 79 1008.2
20260507043023 57 201 0.0 2.6 0.00 0.00 0.00 79 1008.1
20260507041517 57 206 0.0 3.5 0.00 0.00 0.00 79 1007.9
20260507040016 57 153 0.9 6.1 0.00 0.00 0.00 78 1007.8
20260507034515 57 179 0.9 2.6 0.00 0.00 0.00 78 1007.8
20260507033014 57 182 0.9 3.5 0.00 0.00 0.00 77 1007.8
20260507031513 57 195 0.0 2.6 0.00 0.00 0.00 77 1007.9
20260507030013 57 194 0.0 3.5 0.00 0.00 0.00 76 1007.8
20260507024513 58 186 2.6 6.1 0.00 0.00 0.00 76 1007.7
20260507023011 58 247 1.7 4.3 0.00 0.00 0.00 75 1007.6
20260507021510 58 188 2.6 7.8 0.00 0.00 0.00 75 1007.6
20260507020008 58 191 3.5 7.8 0.00 0.00 0.00 74 1007.7
20260507014506 58 197 4.3 8.7 0.00 0.00 0.00 74 1007.7
20260507013012 58 212 2.6 6.1 0.00 0.00 0.00 74 1007.8
20260507011506 58 199 3.5 8.7 0.00 0.00 0.00 74 1008.0
20260507010104 58 221 1.7 5.2 0.00 0.00 0.00 73 1008.1
20260507004606 59 186 2.6 5.2 0.00 0.00 0.00 74 1008.2
20260507003058 58 194 1.7 5.2 0.00 0.00 0.00 73 1008.3
20260507001556 59 199 2.6 5.2 0.00 0.00 0.00 73 1008.3
20260507000054 59 206 3.5 7.0 0.00 0.00 0.00 73 1008.5
20260506234552 60 205 1.7 4.3 0.00 0.00 0.00 73 1008.6
20260506233103 60 196 2.6 5.2 0.00 0.00 0.00 74 1008.7
20260506231555 60 237 2.6 5.2 0.00 0.00 0.00 74 1008.6
20260506230049 60 249 2.6 6.1 0.00 0.00 0.00 72 1008.6
20260506224545 60 235 2.6 6.1 0.00 0.00 0.00 68 1008.7
20260506223046 60 243 1.7 5.2 0.00 0.00 0.00 64 1008.7
20260506221541 61 245 1.7 5.2 0.00 0.00 0.00 61 1008.7
20260506220041 61 238 3.5 6.1 0.00 0.00 0.00 60 1008.5
20260506214543 61 247 1.7 5.2 0.00 0.00 0.00 59 1008.6
20260506213056 61 251 3.5 5.2 0.00 0.00 0.00 58 1008.5
20260506211540 62 246 3.5 7.8 0.00 0.00 0.00 57 1008.2
20260506210040 63 255 4.3 8.7 0.00 0.00 0.00 55 1008.1
20260506204539 63 276 4.3 8.7 0.00 0.00 0.00 55 1007.9
20260506203038 63 267 4.3 7.0 0.00 0.00 0.00 55 1007.8
20260506201541 63 269 5.2 7.8 0.00 0.00 0.00 54 1007.7
20260506200038 64 263 4.3 8.7 0.00 0.00 0.00 53 1007.7
20260506194537 66 259 3.5 7.0 0.00 0.00 0.00 50 1007.5
20260506193038 67 278 5.2 9.6 0.00 0.00 0.00 47 1007.3
20260506191540 67 268 5.2 8.7 0.00 0.00 0.00 48 1007.2
20260506190036 69 259 7.0 12.2 0.00 0.00 0.00 46 1007.1
20260506184547 70 270 6.1 12.2 0.00 0.00 0.00 43 1007.0
20260506183050 71 254 7.0 12.2 0.00 0.00 0.00 43 1007.0
20260506181558 71 245 6.1 12.2 0.00 0.00 0.00 41 1006.9
20260506180036 72 280 7.0 12.2 0.00 0.00 0.00 40 1007.0
20260506174533 73 242 5.2 12.2 0.00 0.00 0.00 37 1007.1
20260506173044 74 215 6.1 12.2 0.00 0.00 0.00 35 1007.0
20260506171532 75 240 7.0 13.0 0.00 0.00 0.00 35 1007.1
20260506170033 75 251 6.1 12.2 0.00 0.00 0.00 35 1007.1
20260506164536 75 253 6.1 13.0 0.00 0.00 0.00 35 1007.1
20260506163035 76 267 7.0 13.9 0.00 0.00 0.00 34 1007.3
20260506161530 79 199 3.5 7.8 0.00 0.00 0.00 26 1007.1
20260506160030 80 323 0.9 6.1 0.00 0.00 0.00 25 1007.1
20260506154527 79 240 2.6 7.8 0.00 0.00 0.00 27 1007.2
20260506153025 80 205 1.7 4.3 0.00 0.00 0.00 26 1007.5
20260506151522 78 190 3.5 7.0 0.00 0.00 0.00 28 1007.6
20260506150021 77 117 1.7 7.0 0.00 0.00 0.00 30 1007.9
20260506144521 78 184 0.9 5.2 0.00 0.00 0.00 29 1008.1
20260506143018 78 177 3.5 10.4 0.00 0.00 0.00 29 1008.4
20260506141514 79 226 0.9 4.3 0.00 0.00 0.00 28 1008.6
20260506140016 79 232 4.3 7.8 0.00 0.00 0.00 28 1008.7
20260506134511 79 182 2.6 6.1 0.00 0.00 0.00 28 1008.9
20260506133008 76 138 0.9 7.0 0.00 0.00 0.00 30 1009.1
20260506131507 76 144 4.3 8.7 0.00 0.00 0.00 30 1009.3
20260506130005 76 199 1.7 7.8 0.00 0.00 0.00 30 1009.5
20260506124504 75 5 1.7 7.0 0.00 0.00 0.00 30 1009.5
20260506123003 76 151 0.9 6.1 0.00 0.00 0.00 30 1009.7
20260506121501 76 161 0.9 5.2 0.00 0.00 0.00 31 1009.8
20260506120100 76 111 0.9 4.3 0.00 0.00 0.00 31 1009.9
20260506114604 77 139 1.7 5.2 0.00 0.00 0.00 30 1010.1
20260506113056 76 235 0.9 4.3 0.00 0.00 0.00 32 1010.2
20260506111552 75 310 0.9 3.5 0.00 0.00 0.00 33 1010.4
20260506110049 74 188 0.9 5.2 0.00 0.00 0.00 34 1010.4
20260506104550 74 226 1.7 4.3 0.00 0.00 0.00 37 1010.6
20260506103052 73 1 0.0 3.5 0.00 0.00 0.00 40 1010.7
20260506101540 71 113 0.9 2.6 0.00 0.00 0.00 42 1010.8
20260506100038 70 173 0.9 2.6 0.00 0.00 0.00 44 1010.8
20260506094532 68 322 0.9 3.5 0.00 0.00 0.00 46 1010.9
20260506093030 67 46 0.9 2.6 0.00 0.00 0.00 47 1010.9
20260506091528 66 74 0.9 2.6 0.00 0.00 0.00 47 1010.8
20260506090029 65 3 0.9 3.5 0.00 0.00 0.00 51 1010.9
20260506084523 64 36 0.9 3.5 0.00 0.00 0.00 52 1010.9
20260506083022 63 60 0.9 3.5 0.00 0.00 0.00 54 1010.9
20260506081521 63 22 0.9 6.1 0.00 0.00 0.00 53 1010.9
20260506073018 62 51 1.7 4.3 0.00 0.00 0.00 55 1011.0
20260506071515 61 350 1.7 5.2 0.00 0.00 0.00 57 1011.0